Other Public Products
Issued by NWS Grand Forks, ND

Home | Current Version | Previous Version | Graphics & Text | Print | Product List | Glossary On
Versions: 1 2 3 4 5 6 7 8 9 10 11 12 13 14 15 16 17 18 19 20 21 22 23 24 25 26 27 28 29 30 31 32 33 34 35 36 37 38 39 40 41 42 43 44 45 46 47 48 49 50
000
FPUS83 KFGF 271810
OPUFGF
PRAIRIE TO PINES WEATHER ROUNDUP
NATIONAL WEATHER SERVICE EASTERN NORTH DAKOTA/GRAND FORKS ND
1200 PM CST FRI FEB 27 2015

 **SATELLITE DATA USED TO AUGMENT SKY COVER AT AUTOMATED STATIONS**
 *****  WEATHER ACROSS EASTERN NORTH DAKOTA  *****

CITY           SKY/WX    TMP DP  RH WIND       PRES   REMARKS
GRAND FORKS    MOSUNNY   13  -1  54 SW3       30.44S
6HR MIN TEMP: -17; 6HR MAX TEMP:  13;

GRAND FORKS AF SUNNY     15  -2  47 W8        30.43S WCI   4
GRAND CITY NWS   N/A     16 N/A N/A SW6         N/A  WCI   7
BUXTON         NOT AVBL
DEVILS LAKE    SUNNY      7  -4  61 SW8       30.36  WCI  -6
FARGO          SUNNY      9  -1  64 SW9       30.49S WCI  -4
6HR MIN TEMP: -12; 6HR MAX TEMP:   9;

WAHPETON ARPT  CLEAR     10  -2  56 W9        30.51S WCI  -2
$$

 *****  WEATHER ACROSS CENTRAL AND WESTERN NORTH DAKOTA  *****

CITY           SKY/WX    TMP DP  RH WIND       PRES   REMARKS
JAMESTOWN      SUNNY     10   0  63 W8        30.39S WCI  -2
6HR MIN TEMP: -13; 6HR MAX TEMP:  10;

BISMARCK       SUNNY     15   1  53 S13       30.35F WCI   1
6HR MIN TEMP: -16; 6HR MAX TEMP:  15;

MINOT          SUNNY     10  -3  55 S12       30.27F WCI  -5
6HR MIN TEMP:  -9; 6HR MAX TEMP:  10;

MINOT AFB      SUNNY     10  -1  61 SW10      30.27F WCI  -4
6HR MIN TEMP: -15; 6HR MAX TEMP:  10;

GARRISON         N/A      8   1  73 S9        30.28F WCI  -5
6HR MIN TEMP: -19; 6HR MAX TEMP:   8;

WILLISTON      SUNNY     12   0  58 S10       30.19F WCI  -1
6HR MIN TEMP: -14; 6HR MAX TEMP:  12;

DICKINSON      SUNNY     18   3  52 S17       30.15F WCI   3
6HR MIN TEMP:  -8; 6HR MAX TEMP:  18;

HETTINGER      SUNNY     17   4  56 S15       30.18F WCI   2
6HR MIN TEMP:  -6; 6HR MAX TEMP:  17;

$$

 *****  OTHER OBSERVATIONS NORTHEAST NORTH DAKOTA  *****

CITY           SKY/WX    TMP DP  RH WIND       PRES   REMARKS
WALHALLA         N/A      9  -2  61 W12       30.37S WCI  -6
LANGDON        NOT AVBL
CAVALIER       FAIR      12  -2  52 W10       30.39S WCI  -1
GRAFTON        NOT AVBL
CANDO          FAIR       9   0  66 SW13      30.35S WCI  -7
FORT TOTTEN      N/A     10  -4  53 SW7       29.95  WCI  -1
ROLLA          FAIR       5  -2  72 SW13      30.28F WCI -12
RUGBY          FAIR       5  -2  72 S9        30.33F WCI  -9
 ***** THE ABOVE OBSERVATIONS ARE NON NWS ARE NOT QUALITY
        CONTROLLED AND MAY MIS-REPORT RAIN FOR SNOW...
$$

 *****  OTHER OBSERVATIONS SOUTHEAST NORTH DAKOTA *****

CITY           SKY/WX    TMP DP  RH WIND       PRES   REMARKS
COOPERSTOWN    NOT AVBL
VALLEY CITY    FAIR       7   0  72 W8        30.42S WCI  -6
OAKES            N/A      9   0  66 S9        30.45F WCI  -5
GWINNER        CLEAR     10   0  61 S12       30.47F WCI  -4
BUFFALO        NOT AVBL
WYNDMERE         N/A      9   0  66 SW9         N/A  WCI  -5
 ***** THE ABOVE OBSERVATIONS ARE NON NWS ARE NOT QUALITY
       CONTROLLED AND MAY MIS-REPORT RAIN FOR SNOW...
$$

  *****  WEATHER ACROSS NORTHERN MINNESOTA  *****

CITY           SKY/WX    TMP DP  RH WIND       PRES   REMARKS
FLAG ISLAND    SUNNY      1  -4  78 S14       30.32S WCI -17
WARROAD        SUNNY      7  -6  56 SW13      30.37R WCI  -9
ROSEAU         SUNNY      7  -2  66 SW12      30.38S WCI  -9
HALLOCK        NOT AVBL
THF RVR FALLS  SUNNY      3  -6  66 SW8       30.42S WCI -10
6HR MIN TEMP: -15; 6HR MAX TEMP:   3;

HALSTAD        NOT AVBL
FOSSTON        SUNNY      7   0  72 SW13      30.43S WCI  -9
BAUDETTE       SUNNY     12  -6  44 SW8       30.34S WCI   0
6HR MIN TEMP: -16; 6HR MAX TEMP:  12;

WASKISH        SUNNY      9  -2  61 SW12      30.40R WCI  -6
CROOKSTON      SUNNY      7   1  78 SW7       30.46S WCI  -5
$$
  *****  WEATHER ACROSS CENTRAL AND WEST MINNESOTA  *****

CITY           SKY/WX    TMP DP  RH WIND       PRES   REMARKS
BEMIDJI        SUNNY     10  -5  49 W10       30.40R WCI  -4
PARK RAPIDS    SUNNY     13  -4  46 W9        30.41S WCI   1
6HR MIN TEMP: -17; 6HR MAX TEMP:  13;

WADENA         SUNNY      9  -2  61 SW7       30.45R WCI  -3
DETROIT LAKES  SUNNY     10  -2  56 SW6       30.44S WCI   1
MOORHEAD       SUNNY     10   0  61 SW8       30.49S WCI  -1
FERGUS FALLS   SUNNY      9  -4  56 W7        30.53S WCI  -3
ELBOW LAKE     FAIR       4  -2  74 W9        30.50R WCI -10
6HR MIN TEMP: -14; 6HR MAX TEMP:   4;

MORRIS MN      SUNNY     10   0  61 SW5       30.50F WCI   2
STAPLES        SUNNY     10  -6  48 SW6       30.45S WCI   1
WHEATON        SUNNY      9  -2  61 SW6       30.53F WCI  -1
$$
  *****  WEATHER ELSEWHERE ACROSS MINNESOTA  *****

CITY           SKY/WX    TMP DP  RH WIND       PRES   REMARKS
DULUTH         SUNNY     12  -8  40 W13       30.39S WCI  -3
6HR MIN TEMP: -11; 6HR MAX TEMP:  12;

INTRNTL FALLS  SUNNY     12  -7  42 W8        30.36S WCI   0
6HR MIN TEMP: -21; 6HR MAX TEMP:  12;

ELY            SUNNY     12 -11  34 W7        30.35F WCI   2
CLOQUET        SUNNY     12  -9  37 W10       30.42S WCI  -1
BRAINERD       SUNNY     10  -7  46 SW7       30.46S WCI  -1
6HR MIN TEMP: -18; 6HR MAX TEMP:  10;

HIBBING        SUNNY     11  -8  42 VRB7      30.39S WCI   0
6HR MIN TEMP: -23; 6HR MAX TEMP:  11;

ALEXANDRIA     SUNNY    N/A N/A N/A SW9       30.47S
6HR MIN TEMP: -10; 6HR MAX TEMP:  27;

SAINT CLOUD    SUNNY     11  -3  53 W10       30.51S WCI  -3
6HR MIN TEMP:  -8; 6HR MAX TEMP:  11;

MINNEAPOLIS    SUNNY     11  -3  53 SW8       30.56S WCI  -1
6HR MIN TEMP:  -6; 6HR MAX TEMP:  11;

$$

  *****  WEATHER ACROSS SOUTH DAKOTA  *****

CITY           SKY/WX    TMP DP  RH WIND       PRES   REMARKS
SIOUX FALLS    SUNNY     10  -3  55 VRB5      30.52F WCI   2
6HR MIN TEMP: -12; 6HR MAX TEMP:  10;

BROOKINGS      NOT AVBL
WATERTOWN      SUNNY      7  -2  66 VRB6      30.46S WCI  -3
6HR MIN TEMP: -15; 6HR MAX TEMP:   7;

HURON          SUNNY      9  -3  58 S5        30.50F WCI   1
6HR MIN TEMP: -18; 6HR MAX TEMP:   9;

SISSETON         N/A     12  -2  53 W9        30.49S WCI   0
ABERDEEN       SUNNY      9  -1  64 S9        30.48F WCI  -4
6HR MIN TEMP: -20; 6HR MAX TEMP:   9;

MITCHELL       SUNNY     16  -2  45 S9        30.51F WCI   4
PIERRE         SUNNY     19  -1  41 S9G20     30.37F WCI   8
6HR MIN TEMP: -10; 6HR MAX TEMP:  19;

MOBRIDGE       SUNNY     14   3  61 S12       30.34F WCI   0
RAPID CITY     SUNNY     16   6  65 S22       30.13F WCI  -2
6HR MIN TEMP:  -4; 6HR MAX TEMP:  16;

$$

  *****  SOME WEATHER IN NEARBY STATES *****

CITY           SKY/WX    TMP DP  RH WIND       PRES   REMARKS
GLASGOW MT     SUNNY     12   0  58 SE13      30.07F WCI  -3
6HR MIN TEMP:  -1; 6HR MAX TEMP:  12;

GREAT FALLS MT LGT SNOW  14   8  77 NW7       30.00R WCI   4
6HR MIN TEMP:   2; 6HR MAX TEMP:  14; 6HR PCP: TRACE;

CHEYENNE WY    LGT SNOW   8   2  76 S18       29.91F WCI -11
6HR MIN TEMP:   2; 6HR MAX TEMP:   8; 6HR PCP: TRACE;

SCOTTSBLUFF NE CLOUDY    20   8  60 S17G30    30.12F WCI   5
6HR MIN TEMP:   7; 6HR MAX TEMP:  20; 6HR PCP: TRACE;

OMAHA NE       MOSUNNY   11   2  67 CALM      30.63S
6HR MIN TEMP:  -1; 6HR MAX TEMP:  12;

DES MOINES IA  MOSUNNY    8  -4  58 W5        30.63F WCI   0
6HR MIN TEMP:  -7; 6HR MAX TEMP:   9;

DAVENPORT IA   SUNNY      1  -7  68 W6        30.65F WCI -10
6HR MIN TEMP: -19; 6HR MAX TEMP:   1; 6HR PCP: TRACE;

CHICAGO IL     SUNNY     14  -4  44 NW9       30.60S WCI   2
6HR MIN TEMP:  -1; 6HR MAX TEMP:  14;

EAU CLAIRE WI  SUNNY      7  -5  57 W12       30.55R WCI  -8
6HR MIN TEMP: -10; 6HR MAX TEMP:   7;

LA CROSSE WI   SUNNY     10  -5  50 CALM      30.60F
6HR MIN TEMP: -10; 6HR MAX TEMP:  10;

$$

  *****  SOME NATIONAL WEATHER *****

CITY           SKY/WX    TMP DP  RH WIND       PRES   REMARKS
LA GUARDIA NY  MOSUNNY   27   8  44 NW7       30.39S WCI  19
6HR MIN TEMP:  19; 6HR MAX TEMP:  27;




USA.gov is the U.S. government's official web portal to all federal, state and local government web resources and services.